Regional Weather Roundup
Issued by NWS

Home | Current Version | Previous Version | Text Only | Print | Product List | Glossary On
Versions: 1 2 3 4 5 6 7 8 9 10 11 12 13 14 15 16 17 18 19 20 21 22 23 24 25 26 27 28 29 30 31 32 33 34 35 36 37 38 39 40 41 42 43 44 45 46 47 48 49 50
000
ASUS43 KMPX 290310
RWRMN
WEATHER ROUNDUP FOR MINNESOTA
NATIONAL WEATHER SERVICE TWIN CITIES/CHANHASSEN MN
900 PM CST FRI NOV 28 2014


NOTE: "FAIR" INDICATES FEW OR NO CLOUDS BELOW 12,000 FEET WITH NO
SIGNIFICANT WEATHER AND/OR OBSTRUCTIONS TO VISIBILITY. N/A MEANS
CURRENT SKY AND/OR WEATHER CONDITIONS ARE NOT AVAILABLE.

MNZ060>063-068>070-290400-
   Twin Cities Metro

CITY           SKY/WX    TMP DP  RH WIND       PRES   REMARKS
TWIN CITIES    CLOUDY    22  18  85 E9        29.77F WCI  12
ST PAUL        CLOUDY    23  18  81 SE8       29.80F WCI  14
CRYSTAL        CLOUDY    24  17  74 E9        29.75F WCI  14
BLAINE         MOCLDY    23  19  86 E5        29.77  WCI  17
LAKEVILLE      MOCLDY    19  18  93 E7        29.76F WCI  10
EDEN PRAIRIE   CLOUDY    23  18  81 E10       29.74F WCI  12
SOUTH ST PAUL  CLOUDY    24  19  80 SE3       29.78F
LAKE ELMO      FAIR      23  19  86 SE6       29.79F WCI  16
$$
MNZ001>005-007-008-013>017-022>024-027-028-290400-
   Northwest Minnesota

CITY           SKY/WX    TMP DP  RH WIND       PRES   REMARKS
BEMIDJI        CLOUDY    15  11  82 SE13      29.66F WCI   1
HALLOCK        MOCLDY    18  12  79 S7        29.67R WCI   8
ROSEAU         CLOUDY    18  12  79 SE7       29.66F WCI   8
WARROAD        LGT SNOW  16  12  86 SE9       29.67F WCI   4
THIEF RVR FALL CLOUDY    16  12  86 SE10      29.64F WCI   3
CROOKSTON      MOCLDY    18  12  79 S12       29.65F WCI   5
FOSSTON        MOCLDY    16  10  79 SE9       29.63F WCI   4
DETROIT LAKES  MOCLDY    18  14  86 SE16      29.64F WCI   3
MOORHEAD       MOCLDY    19  16  86 SE16G23   29.65F WCI   5
PARK RAPIDS    CLOUDY    15  11  83 SE14      29.68F WCI   0
MAHNOMEN       MOCLDY    17  12  80 SE9       29.62F WCI   6
$$
MNZ006-009>011-018-025>026-290400-
   North Central Minnesota

CITY           SKY/WX    TMP DP  RH WIND       PRES   REMARKS
BAUDETTE       FLURRIES  16  11  80 SE7       29.68F WCI   6
FLAG ISLAND    LGT SNOW  14  10  85 E6        29.69F WCI   5
INTL FALLS     LGT SNOW  16  12  84 SE6       29.72F VSB 1   WCI   7
WASKISH        FLURRIES  18  12  79 SE10      29.68R WCI   6
BIG FORK       MOCLDY    18  10  73 S12G17    29.71F WCI   5
LONGVILLE      CLOUDY    16  10  79 SE8       29.72F WCI   5
GRAND RAPIDS   CLOUDY    14  10  85 SE10      29.73S WCI   1
CRANE LAKE     FLURRIES  18  16  93 CALM      29.75F
ORR            LGT SNOW  18  12  79 SE9       29.69F WCI   6
COOK           FLURRIES  18  14  86 SE10      29.74S WCI   6
WALKER         CLOUDY    16  10  79 SE9       29.68F WCI   4
$$
MNZ012-019>021-037-290400-
   Northeast Minnesota

CITY           SKY/WX    TMP DP  RH WIND       PRES   REMARKS
DULUTH         FLURRIES  16  12  84 SE8       29.77S WCI   5
ELY            CLOUDY    19  18  93 SE10      29.73F WCI   8
HIBBING        CLOUDY    17  11  77 SE8       29.74F WCI   7
EVELETH        FLURRIES  18  14  86 SE7       29.75F WCI   8
DULUTH HARBOR  FLURRIES  19  16  86 CALM      29.85F
TWO HARBORS    CLOUDY    21  16  79 SE6       29.78F WCI  14
SILVER BAY     PTCLDY    21  18  86 S7        29.79F WCI  13
GRAND MARAIS     N/A     27  22  81 SE16      29.84F WCI  15
G MARAIS ARPRT CLOUDY    18  12  79 E6        29.76F WCI   9
$$
MNZ029>031-032-039>041-046>048-054>057-064-290400-
   West Central Minnesota

CITY           SKY/WX    TMP DP  RH WIND       PRES   REMARKS
FERGUS FALLS   MOCLDY    18  12  79 SE15G21   29.69F WCI   3
WHEATON        CLOUDY    18  14  86 SE15      29.68F WCI   3
MORRIS         PTCLDY    19  16  86 SE15      29.67F WCI   5
ALEXANDRIA     CLOUDY    18  13  80 SE12      29.69F WCI   5
ELBOW LAKE     CLOUDY    18  14  85 SE16      29.65F WCI   3
WADENA         CLOUDY    16  10  79 SE14      29.68F WCI   1
GLENWOOD       MOCLDY    18  14  86 SE10      29.70F WCI   6
APPLETON       CLOUDY    19  16  86 SE13      29.69F WCI   7
BENSON         CLOUDY    19  18  93 S9        29.69F WCI   9
ORTONVILLE     CLOUDY    18  14  86 SE10      29.67F WCI   6
MADISON        MOCLDY    23  19  86 SE7       29.69F WCI  15
WILLMAR        FAIR      21  18  86 SE12      29.71F WCI   9
$$
MNZ033>034-036-042>043-049>051-058-059-290400-
   Central Minnesota

CITY           SKY/WX    TMP DP  RH WIND       PRES   REMARKS
ST CLOUD       CLOUDY    20  14  77 E5        29.74F WCI  13
SAUK CENTRE    CLOUDY    17  14  86 E7        29.71F WCI   8
PAYNESVILLE    MOCLDY    17  14  89 NE3       29.74F
AITKIN         CLOUDY    19  12  73 SE7       29.74F WCI  10
PINE RIVER     CLOUDY    16  12  86 SE10      29.76F WCI   3
BRAINERD       MOCLDY    16  12  84 SE10      29.74F WCI   4
STAPLES        CLOUDY    16  10  79 SE6       29.71F WCI   7
LONG PRAIRIE   CLOUDY    18  14  86 E6        29.72F WCI   9
LITTLE FALLS   CLOUDY    19  14  79 E5        29.75F WCI  13
LITCHFIELD     CLOUDY    21  19  93 SE10      29.73F WCI  10
BUFFALO        MOCLDY    22  17  83 E5        29.76F WCI  15
MAPLE LAKE     MOCLDY    22  19  87 E5        29.75F WCI  16
$$
MNZ037-044-045-052-053-290400-
   East Central Minnesota

CITY           SKY/WX    TMP DP  RH WIND       PRES   REMARKS
PRINCETON      CLOUDY    19  16  86 E7        29.75F WCI  10
MORA             N/A    N/A N/A N/A MISG        N/A
CAMBRIDGE      MOCLDY    21  12  68 E3        29.76F
RUSH CITY      CLOUDY    19  15  82 E3        29.81S
MOOSE LAKE     CLOUDY    19  12  73 SE6       29.77F WCI  11
HINCKLEY       CLOUDY    19  14  79 CALM      29.79F
CLOQUET        CLOUDY    16  12  86 SE6       29.77S WCI   7
MCGREGOR       CLOUDY    19  14  79 SE13      29.76F WCI   7
$$
MNZ071>073-080-081-089-090-097-098-290400-
   Southwest Minnesota

CITY           SKY/WX    TMP DP  RH WIND       PRES   REMARKS
MONTEVIDEO     CLOUDY    19  18  93 S9        29.70F WCI   9
GRANITE FALLS  CLOUDY    20  18  89 E5        29.71F WCI  14
CANBY          CLOUDY    20  19  93 SE8       29.69F WCI  11
MARSHALL       MOCLDY    18  12  79 SE7       29.67F WCI   8
REDWOOD FALLS  PTCLDY    20  17  88 E7        29.71F WCI  11
OLIVIA         PTCLDY    21  18  86 E6        29.71S WCI  14
PIPESTONE      PTCLDY    23  21  93 SE8       29.62F WCI  14
WINDOM         PTCLDY    19  19 100 E8        29.66F WCI   9
WORTHINGTON    CLEAR     18  18 100 E6        29.65F WCI   9
JACKSON        PTCLDY    19  18  93 E8        29.67F WCI   9
TRACY          PTCLDY    18  16  94 SE5       29.66F WCI  11
SLAYTON        PTCLDY    19  19  99 CALM      29.65F FOG
$$
MNZ065>067-074>077-082>085-091>093-290400-
   South Central Minnesota

CITY           SKY/WX    TMP DP  RH WIND       PRES   REMARKS
MANKATO        MOCLDY    23  18  80 SE13      29.71F WCI  11
NEW ULM        FAIR      21  19  93 SE8       29.71F WCI  12
ST JAMES       PTCLDY    19  18  93 E6        29.71F WCI  11
FAIRMONT       PTCLDY    19  16  86 SE6       29.69F WCI  11
GLENCOE        CLOUDY    23  21  91 E9        29.72F WCI  13
FARIBAULT      PTCLDY    23  19  86 E6        29.75F WCI  16
OWATONNA       PTCLDY    23  19  86 E9        29.73F WCI  13
WASECA         MOCLDY    21  18  86 E10       29.74F WCI  10
ALBERT LEA     PTCLDY    23  21  93 SE8       29.72F FOG     WCI  14
$$
MNZ078>079-086>088-094>096-290400-
   Southeast Minnesota

CITY           SKY/WX    TMP DP  RH WIND       PRES   REMARKS
ROCHESTER      PTCLDY    21  17  84 SE10      29.76F WCI  10
RED WING       MOCLDY    25  19  80 SE8       29.80F WCI  16
STANTON        FAIR      24  19  82 E5        29.75F WCI  18
DODGE CENTER   PTCLDY    21  19  93 SE9       29.74F WCI  11
WINONA         CLOUDY    25  21  86 SE3       29.84S
AUSTIN         PTCLDY    19  18  93 E6        29.74F WCI  11
PRESTON        MOCLDY    22  19  89 SE5       29.78S WCI  16
$$
ABBREVIATIONS USED IN REMARKS
   TC - TEMPERATURES IN CELSIUS
  WCI - WIND CHILL INDEX
   HX - HEAT INDEX
  VSB - VISIBILITY
$$



USA.gov is the U.S. government's official web portal to all federal, state and local government web resources and services.